Regional Weather Roundup
Issued by NWS Upton, NY

Current Version | Previous Version | Graphics & Text | Print | Product List | Glossary Off
Versions: 1 2 3 4 5 6 7 8 9 10 11 12 13 14 15 16 17 18 19 20 21 22 23 24 25 26 27 28 29 30 31 32 33 34 35 36 37 38 39 40 41 42 43 44 45 46 47 48

000
ASUS41 KOKX 270605
RWROKX

REGIONAL WEATHER ROUNDUP
NATIONAL WEATHER SERVICE NEW YORK NY
100 AM EST FRI FEB 27 2015

NOTE: "FAIR" INDICATES FEW OR NO CLOUDS BELOW 12,000 FEET WITH NO
SIGNIFICANT WEATHER AND/OR OBSTRUCTIONS TO VISIBILITY.

NYZ071-072-176-178-NJZ106-104-270700-
NEW YORK CITY METRO AREA


CITY           SKY/WX    TMP DP  RH WIND       PRES   REMARKS
CENTRAL PARK   CLOUDY    21   6  52 VRB6      30.18R WCI  13
LAGUARDIA APRT CLOUDY    22   8  55 N9        30.17R WCI  12
KENNEDY INTL   MOCLDY    23   5  46 N9        30.18R WCI  13
NEWARK/LIBERTY MOCLDY    20  10  65 N8        30.18R WCI  10
BRNX BOT. GARD   N/A    N/A N/A N/A NW10      30.16R
TETERBORO      CLOUDY    20   8  60 N5        30.17R WCI  13
$$

NYZ177-179-078>081-270700-
LONG ISLAND NEW YORK

CITY           SKY/WX    TMP DP  RH WIND       PRES   REMARKS
FARMINGDALE    PTCLDY    21   7  54 N8        30.16R WCI  11
ISLIP          PTCLDY    20  12  71 N8        30.14R WCI  10
SHIRLEY        CLEAR     18  10  71 NW6       30.16R WCI  10
WESTHAMPTON    CLEAR     10   3  73 CALM      30.15R
MONTAUK POINT    N/A     23  14  68 CALM      30.13R
$$

NYZ052-065-067-270700-
HUDSON VALLEY

CITY           SKY/WX    TMP DP  RH WIND       PRES   REMARKS
WHITE PLAINS   PTCLDY    16   1  51 NW7       30.12S WCI   6
NEWBURGH       MOCLDY    14   5  67 CALM      30.15S
MONTGOMERY     CLOUDY     8   3  80 CALM      30.15R
POUGHKEEPSIE   MOCLDY    13   4  67 CALM      30.18R
ALBANY         CLOUDY    11  -6  46 N8        30.20S WCI  -1
$$

NJZ001-105-106-008-010-013-015-019>022-104-270700-
NEW JERSEY

CITY           SKY/WX    TMP DP  RH WIND       PRES   REMARKS
NEWARK/LIBERTY MOCLDY    20  10  65 N8        30.18R WCI  10
TETERBORO      CLOUDY    20   8  60 N5        30.17R WCI  13
CALDWELL       PTCLDY    16   7  67 CALM      30.17S
MORRISTOWN     CLEAR     18  12  79 CALM      30.17R
SOMERVILLE     CLEAR     14   9  80 CALM      30.16R
SUSSEX         MIX PCPN   8   4  83 CALM      30.15R
ANDOVER          N/A      7   3  84 CALM      30.14R
TRENTON        CLEAR     21  12  68 NW5       30.15R WCI  15
MILLVILLE      CLOUDY    18  14  84 CALM      30.16R
ATLANTIC CITY  NOT AVBL
WRIGHTSTOWN    NOT AVBL
TOMS RIVER     CLEAR     19  14  79 N5        30.16R WCI  13
BELMAR         PTCLDY    21  10  63 N5        30.15R WCI  15
$$

PAZ047>061-062-071-270700-
EASTERN PENNSYLVANIA

CITY           SKY/WX    TMP DP  RH WIND       PRES   REMARKS
PHILADELPHIA   MOCLDY    26  18  71 CALM      30.18R
ALLENTOWN      PTCLDY    18   9  68 NW3       30.17R
SCRANTON       CLOUDY    13   4  67 N6        30.15R WCI   4
$$

CTZ002-004>006-009-010-012-RIZ004-006-007-MAZ004-011-015-270700-
SOUTHERN NEW ENGLAND
 IN CT

CITY           SKY/WX    TMP DP  RH WIND       PRES   REMARKS
BRADLEY INTL   MOCLDY    18   1  47 NW8       30.15R WCI   8
HARTFORD       PTCLDY    19   3  49 NW8       30.17R WCI   9
DANBURY        PTCLDY     9   0  67 SW3       30.15S
WTRBRY/OXFORD  PTCLDY    14  -4  44 N7        30.11S WCI   4
BRIDGEPORT     PTCLDY    19   3  49 NW8       30.16R WCI   9
MERIDEN        PTCLDY    16   2  54 N3        30.16R
NEW HAVEN      PTCLDY    20   3  48 NW8       30.15R WCI  10
CHESTER        FAIR      19  10  68 NW5       30.12R WCI  13
GROTON         CLEAR     14  10  84 N3        30.13R
WILLIMANTIC    PTCLDY    11   7  84 CALM      30.14R

 IN RI

CITY           SKY/WX    TMP DP  RH WIND       PRES   REMARKS
PROVIDENCE     PTCLDY    17  11  77 NW3       30.13R
BLOCK ISLAND   CLEAR     19  12  73 N3        30.11R
WESTERLY       CLEAR     14  10  84 CALM      30.13R

 IN MA

CITY           SKY/WX    TMP DP  RH WIND       PRES   REMARKS
BOSTON         MOCLDY    19   1  45 NW7       30.14R WCI  10
WORCESTER      PTCLDY    13  -3  49 W8        30.07R WCI   2
WESTFIELD      CLOUDY    13   1  59 CALM      30.15R
PROVINCETOWN   MOCLDY    25  10  54 N8        30.11R WCI  16
NANTUCKET      CLOUDY    25  14  63 N10       30.09S WCI  15
$$

ANZ330-335-338-340-345-350-353-355-270700-
COASTAL MARINE OBSERVATIONS


STATION/POSITION TIME  SKY/WX   TEMP    WIND        PRES    VSBY  WAVE
                                AIR SEA DIR/SP/G                  HT/PER
                 (UTC)          (F)     (DEG/KT/KT) (MB)    (MI)  (FT/S)
NY HARB ENTRANCE 0600            27 38  350/ 14/ 16 1021.0          3/10
4S FIRE IS       0600               32                N/A           3/ 9
20S FIRE ISLAND  0500               36              1020.8          4/ 8
23SW MTP         0600                                 N/A           4/ 6
HUDSON CANYON    NOT AVBL
EXECUTION ROCKS  NOT AVBL
WESTERN LI SOUND NOT AVBL
CENTRAL LI SOUND NOT AVBL
EASTERN LI SOUND NOT AVBL
ROBBINS REEF     0600            22     360/ 10/ 12 1020.3
$$


>>>>>>>>>>>>>>>>>>>>>>>>>>>> KEY <<<<<<<<<<<<<<<<<<<<<<<<<<<
>                                                          <
>     SKY/WX - SKY CONDITION/PRESENT WEATHER               <
>     TMP    - TEMPERATURE IN FAHRENHEIT                   <
>     DP     - DEWPOINT IN FAHRENHEIT                      <
>     RH     - RELATIVE HUMIDITY IN PERCENT                <
>     WIND   - DIRECTION AND SPEED IN MPH                  <
>     PRES   - MEAN SEA LEVEL PRESSURE IN INCHES OF HG     <
>     WCI    - WIND CHILL INDEX                            <
>     VSB    - VISIBILITY IN MILES                         <
>     HX     - HEAT INDEX                                  <
>     TC     - TEMPERATURE IN CELSIUS                      <
>     VRB    - VARIABLE WIND DIRECTION                     <
>                                                          <
>>>>>>>>>>>>>>>>>>>>>>>>>>>> KEY <<<<<<<<<<<<<<<<<<<<<<<<<<<




USA.gov is the U.S. government's official web portal to all federal, state and local government web resources and services.